Location: Juzet
(42.9779°N, 0.7597°E)
Time: 02:54:37
(UTC+00:00)

H-2A R/B - Pass Details

Date: 14 July 2020
Orbit: 577 x 656 km, 98.5° (Epoch: 04 August)

Event Time Altitude Azimuth Distance (km) Brightness Sun altitude
Rises 03:38:46 0° 175° (S) 2,931 5.2 -8.6°
Reaches altitude 10° 03:41:01 10° 180° (S) 2,016 4.3 -8.3°
Maximum altitude 03:45:20 57° 258° (WSW) 743 2.2 -7.6°
Drops below altitude 10° 03:49:35 10° 338° (NNW) 1,984 4.9 -7.0°
Sets 03:51:47 0° 343° (NNW) 2,881 5.8 -6.7°
